FW8823 Weather Reports


Display with metric or nautical units.
time (UTC)temp
F
wind
direction
speed
MPH
gust
MPH
rain 1hr
in
rain 24hr
in
rain mn
in
humidity
%
barometer
mb
20260506023346 64 248 0.0 0.0 0.00 0.00 0.00 89 938.3
20260506022836 64 248 0.0 0.0 0.00 0.00 0.00 89 938.3
20260506022326 64 248 0.0 0.0 0.00 0.00 0.00 89 938.5
20260506022046 65 248 0.0 0.0 0.00 0.00 0.00 88 938.4
20260506021306 65 248 0.0 0.0 0.00 0.00 0.00 88 938.5
20260506020756 65 248 0.0 0.0 0.00 0.00 0.00 87 938.5
20260506020245 65 248 0.0 0.0 0.00 0.00 0.00 86 938.5
20260506015735 66 248 0.0 0.0 0.00 0.00 0.00 85 938.5
20260506015225 66 248 0.0 0.0 0.00 0.00 0.00 84 938.4
20260506014715 66 248 0.0 0.0 0.00 0.00 0.00 83 938.6
20260506014205 66 248 0.0 0.0 0.00 0.00 0.00 84 938.8
20260506013655 66 248 0.0 0.0 0.00 0.00 0.00 83 938.7
20260506013145 66 248 0.0 0.0 0.00 0.00 0.00 83 938.8
20260506012635 67 248 0.0 0.0 0.00 0.00 0.00 82 938.7
20260506012124 67 248 0.0 0.0 0.00 0.00 0.00 81 938.8
20260506011614 67 248 0.0 2.0 0.00 0.00 0.00 81 938.9
20260506011104 67 248 0.0 2.0 0.00 0.00 0.00 80 938.9
20260506010554 67 248 0.0 0.0 0.00 0.00 0.00 82 938.8
20260506010304 67 248 0.0 2.0 0.00 0.00 0.00 82 939.0
20260506005534 66 248 0.0 4.0 0.00 0.00 0.00 83 939.1
20260506005025 66 225 1.0 6.0 0.00 0.00 0.00 82 938.9
20260506004514 66 225 3.0 6.0 0.00 0.00 0.00 82 939.0
20260506004003 67 203 4.0 6.0 0.00 0.00 0.00 83 938.7
20260506003453 67 158 4.0 6.0 0.00 0.00 0.00 83 939.1
20260506002944 67 158 4.0 6.0 0.00 0.00 0.00 83 939.0
20260506002650 67 113 3.0 4.0 0.00 0.00 0.00 82 939.0
20260506001923 67 113 0.0 4.0 0.00 0.00 0.00 83 939.2
20260506001414 67 113 2.0 2.0 0.00 0.00 0.00 83 939.0
20260506000903 68 113 0.0 2.0 0.00 0.00 0.00 82 939.1
20260506000619 67 113 2.0 4.0 0.00 0.00 0.00 82 939.0
20260505235843 67 113 1.0 4.0 0.00 0.00 0.00 81 938.9
20260505235332 67 113 3.0 4.0 0.00 0.00 0.00 81 939.0
20260505234822 67 113 2.0 4.0 0.00 0.00 0.00 82 938.7
20260505234313 67 90 3.0 6.0 0.00 0.00 0.00 81 938.6
20260505233802 67 90 3.0 6.0 0.00 0.00 0.00 81 938.8
20260505233252 67 113 4.0 6.0 0.00 0.00 0.00 81 938.8
20260505233001 67 113 1.0 4.0 0.00 0.00 0.00 80 938.7
20260505232232 67 113 1.0 4.0 0.00 0.00 0.00 80 938.6
20260505231942 67 113 2.0 4.0 0.00 0.00 0.00 80 938.6
20260505231216 67 113 0.0 4.0 0.00 0.00 0.00 80 938.5
20260505230701 67 113 2.0 6.0 0.00 0.00 0.00 79 938.4
20260505230151 68 113 2.0 6.0 0.00 0.00 0.00 79 938.2
20260505225641 68 90 2.0 6.0 0.00 0.00 0.00 79 937.9
20260505225131 68 90 1.0 7.0 0.00 0.00 0.00 79 938.1
20260505224621 68 90 2.0 7.0 0.00 0.00 0.00 78 938.0
20260505224111 68 113 5.0 7.0 0.00 0.00 0.00 77 937.8
20260505223601 68 113 4.0 4.0 0.00 0.00 0.00 77 937.8
20260505223051 68 113 0.0 6.0 0.00 0.00 0.00 76 937.9
20260505222541 69 113 2.0 6.0 0.00 0.00 0.00 74 938.0
20260505222031 69 90 4.0 7.0 0.00 0.00 0.00 73 937.9
20260505221521 69 113 5.0 8.0 0.00 0.00 0.00 72 937.8
20260505221010 70 113 5.0 11.0 0.00 0.00 0.00 71 937.7
20260505220500 70 113 7.0 11.0 0.00 0.00 0.00 70 937.6
20260505215950 70 90 4.0 4.0 0.00 0.00 0.00 71 937.6
20260505215440 70 90 2.0 4.0 0.00 0.00 0.00 70 937.7
20260505214930 71 90 2.0 4.0 0.00 0.00 0.00 70 937.3
20260505214639 71 113 3.0 4.0 0.00 0.00 0.00 69 937.5
20260505213911 71 113 2.0 4.0 0.00 0.00 0.00 68 937.4
20260505213400 72 135 2.0 7.0 0.00 0.00 0.00 67 937.3
20260505212849 72 113 2.0 7.0 0.00 0.00 0.00 67 937.3
20260505212339 72 113 4.0 7.0 0.00 0.00 0.00 65 936.9
20260505212050 73 135 4.0 7.0 0.00 0.00 0.00 63 937.2
20260505211319 74 135 3.0 4.0 0.00 0.00 0.00 60 937.2
20260505210809 74 135 2.0 6.0 0.00 0.00 0.00 60 937.3
20260505210259 74 158 4.0 6.0 0.00 0.00 0.00 59 937.1
20260505205749 75 135 3.0 7.0 0.00 0.00 0.00 58 937.0
20260505205239 75 135 4.0 7.0 0.00 0.00 0.00 59 936.8
20260505204728 75 135 4.0 7.0 0.00 0.00 0.00 59 936.9
20260505204218 75 135 4.0 7.0 0.00 0.00 0.00 58 936.9
20260505203708 75 113 4.0 7.0 0.00 0.00 0.00 58 937.0
20260505203158 75 113 3.0 7.0 0.00 0.00 0.00 59 937.1
20260505202648 75 90 6.0 8.0 0.00 0.00 0.00 59 936.9
20260505202139 75 113 6.0 8.0 0.00 0.00 0.00 59 937.1
20260505201628 76 90 3.0 6.0 0.00 0.00 0.00 60 936.9
20260505201336 76 90 2.0 6.0 0.00 0.00 0.00 58 936.9
20260505200607 76 113 3.0 6.0 0.00 0.00 0.00 59 937.0
20260505200314 76 68 3.0 8.0 0.00 0.00 0.00 58 937.0
20260505195548 76 113 2.0 8.0 0.00 0.00 0.00 60 937.0
20260505195038 76 90 5.0 7.0 0.00 0.00 0.00 58 936.9
20260505194528 76 68 2.0 8.0 0.00 0.00 0.00 58 936.9
20260505194017 76 113 5.0 8.0 0.00 0.00 0.00 59 937.0
20260505193507 76 68 4.0 7.0 0.00 0.00 0.00 58 936.8
20260505192956 77 90 3.0 7.0 0.00 0.00 0.00 59 936.8
20260505192704 76 90 3.0 8.0 0.00 0.00 0.00 58 936.8
20260505192200 76 113 4.0 8.0 0.00 0.00 0.00 59 936.7
20260505191426 76 90 4.0 7.0 0.00 0.00 0.00 59 936.6
20260505190916 76 45 3.0 6.0 0.00 0.00 0.00 59 936.8
20260505190637 76 68 2.0 6.0 0.00 0.00 0.00 59 936.9
20260505185856 76 23 2.0 4.0 0.00 0.00 0.00 61 936.8
20260505185828 75 0 3.0 4.0 0.00 0.00 0.00 59 937.1
20260505184836 75 0 3.0 4.0 0.00 0.00 0.00 59 936.7
20260505184548 75 0 3.0 4.0 0.00 0.00 0.00 59 936.9
20260505183816 76 0 3.0 4.0 0.00 0.00 0.00 59 937.0
20260505183305 76 0 2.0 4.0 0.00 0.00 0.00 58 936.9
20260505182756 75 338 3.0 4.0 0.00 0.00 0.00 58 936.8
20260505182246 76 338 4.0 4.0 0.00 0.00 0.00 57 936.8
20260505181736 78 338 1.0 2.0 0.00 0.00 0.00 54 936.8
20260505181225 77 338 2.0 2.0 0.00 0.00 0.00 51 936.6
20260505180715 76 338 2.0 2.0 0.00 0.00 0.00 52 936.8
20260505180204 75 338 2.0 2.0 0.00 0.00 0.00 51 937.0
20260505175655 75 338 2.0 4.0 0.00 0.00 0.00 51 937.0
20260505175145 74 338 2.0 4.0 0.00 0.00 0.00 60 936.8
20260505174635 74 0 3.0 4.0 0.00 0.00 0.00 60 936.9
20260505174125 73 293 2.0 4.0 0.00 0.00 0.00 59 937.0
20260505173615 73 270 4.0 6.0 0.00 0.00 0.00 56 936.8
20260505173330 72 248 4.0 6.0 0.00 0.00 0.00 64 937.0
20260505172815 72 248 5.0 6.0 0.00 0.00 0.00 63 937.2
20260505172044 72 315 5.0 6.0 0.00 0.00 0.00 64 937.1
20260505171757 72 315 4.0 4.0 0.00 0.00 0.00 65 937.1
20260505171024 72 315 4.0 4.0 0.00 0.00 0.00 68 937.1
20260505170514 72 315 4.0 4.0 0.00 0.00 0.00 61 937.2
20260505170003 71 315 4.0 4.0 0.00 0.00 0.00 67 937.0
20260505165453 71 315 3.0 4.0 0.00 0.00 0.00 60 937.2
20260505164944 71 315 0.0 0.0 0.00 0.00 0.00 62 937.2
20260505164434 71 315 0.0 0.0 0.00 0.00 0.00 62 937.3
20260505163923 70 315 0.0 0.0 0.00 0.00 0.00 64 937.4
20260505163414 71 315 0.0 0.0 0.00 0.00 0.00 66 937.3
20260505162903 70 315 0.0 0.0 0.00 0.00 0.00 66 937.3
20260505162613 70 315 0.0 0.0 0.00 0.00 0.00 67 937.2
20260505161843 70 315 0.0 0.0 0.00 0.00 0.00 65 937.4
20260505161333 69 315 0.0 0.0 0.00 0.00 0.00 70 937.5
20260505160823 69 315 0.0 0.0 0.00 0.00 0.00 69 937.8
20260505160312 69 315 0.0 2.0 0.00 0.00 0.00 68 937.8
20260505153211 67 315 0.0 0.0 0.00 0.00 0.00 72 938.1
20260505152701 67 0 0.0 0.0 0.00 0.00 0.00 74 938.0
20260505152151 68 0 0.0 0.0 0.00 0.00 0.00 69 938.0
20260505151641 68 0 0.0 2.0 0.00 0.00 0.00 70 938.4
20260505151131 68 315 0.0 4.0 0.00 0.00 0.00 73 938.3
20260505150621 66 315 2.0 4.0 0.00 0.00 0.00 75 938.3
20260505150112 65 338 4.0 4.0 0.00 0.00 0.00 76 938.4
20260505140420 63 0 4.0 4.0 0.00 0.00 0.00 76 938.6
20260505130219 63 293 0.0 4.0 0.00 0.00 0.00 73 938.6
20260505124648 60 270 2.0 2.0 0.00 0.00 0.00 77 938.7
20260505124138 62 248 2.0 2.0 0.00 0.00 0.00 73 938.7
20260505123628 62 248 0.0 2.0 0.00 0.00 0.00 73 938.7
20260505123118 63 225 1.0 2.0 0.00 0.00 0.00 70 938.7
20260505122608 64 225 0.0 2.0 0.00 0.00 0.00 69 938.5
20260505122057 60 225 0.0 2.0 0.00 0.00 0.00 76 938.4
20260505121806 63 225 0.0 2.0 0.00 0.00 0.00 71 938.3
20260505121037 61 225 0.0 2.0 0.00 0.00 0.00 73 938.4
20260505121012 62 158 0.0 6.0 0.00 0.00 0.00 71 938.2
20260505120016 59 158 0.0 7.0 0.00 0.00 0.00 77 938.1
20260505115506 56 158 5.0 7.0 0.00 0.00 0.00 85 938.0
20260505115216 55 225 1.0 4.0 0.00 0.00 0.00 85 937.9
20260505114447 55 203 4.0 4.0 0.00 0.00 0.00 86 937.7
20260505113937 55 203 0.0 4.0 0.00 0.00 0.00 86 937.8
20260505113426 54 203 2.0 4.0 0.00 0.00 0.00 88 937.6
20260505113139 54 203 3.0 6.0 0.00 0.00 0.00 89 937.6
20260505112406 54 225 0.0 6.0 0.00 0.00 0.00 89 937.8
20260505111856 54 225 4.0 6.0 0.00 0.00 0.00 88 937.5
20260505111606 54 203 4.0 8.0 0.00 0.00 0.00 90 937.5
20260505110835 54 203 2.0 8.0 0.00 0.00 0.00 89 937.4
20260505110326 54 203 5.0 7.0 0.00 0.00 0.00 89 937.3
20260505102205 53 225 5.0 7.0 0.00 0.00 0.00 88 936.6
20260505101654 54 225 6.0 7.0 0.00 0.00 0.00 88 936.5
20260505101145 54 225 5.0 7.0 0.00 0.00 0.00 88 936.6
20260505100635 54 203 4.0 6.0 0.00 0.00 0.00 88 936.6
20260505100124 54 158 2.0 6.0 0.00 0.00 0.00 88 936.5
20260505095614 54 135 3.0 6.0 0.00 0.00 0.00 88 936.4
20260505095101 55 180 4.0 7.0 0.00 0.00 0.00 88 936.4
20260505094553 55 180 4.0 7.0 0.00 0.00 0.00 88 936.6
20260505094533 55 180 2.0 7.0 0.00 0.00 0.00 88 936.5
20260505093756 55 225 4.0 7.0 0.00 0.00 0.00 87 936.3
20260505093031 55 225 0.0 4.0 0.00 0.00 0.00 87 936.4
20260505092514 55 135 1.0 8.0 0.00 0.00 0.00 87 936.4
20260505092225 55 180 3.0 9.0 0.00 0.00 0.00 88 936.1
20260505091453 55 225 7.0 9.0 0.00 0.00 0.00 87 936.3
20260505090944 55 225 8.0 11.0 0.00 0.00 0.00 89 936.2
20260505090433 55 225 8.0 11.0 0.00 0.00 0.00 87 935.9
20260505085923 55 248 8.0 11.0 0.00 0.00 0.00 89 936.3
20260505085413 55 248 8.0 11.0 0.00 0.00 0.00 88 936.3
20260505084903 56 225 10.0 11.0 0.00 0.00 0.00 89 935.9
20260505084353 56 248 8.0 11.0 0.00 0.00 0.00 87 936.0
20260505083842 56 225 8.0 9.0 0.00 0.00 0.00 87 936.0
20260505083333 56 203 3.0 8.0 0.00 0.00 0.00 87 935.9
20260505082822 56 203 5.0 11.0 0.00 0.00 0.00 87 935.7
20260505082312 56 248 8.0 13.0 0.00 0.00 0.00 89 936.0
20260505081803 56 225 7.0 13.0 0.00 0.00 0.00 88 936.1
20260505081251 56 225 8.0 13.0 0.00 0.00 0.00 87 936.0
20260505080741 56 225 10.0 15.0 0.00 0.00 0.00 87 936.0
20260505080232 57 225 10.0 15.0 0.00 0.00 0.00 85 935.6
20260505075722 58 248 7.0 18.0 0.00 0.00 0.00 85 935.9
20260505075211 66 315 13.0 18.0 0.00 0.00 0.00 75 935.6
20260505074921 66 338 13.0 17.0 0.00 0.00 0.00 75 935.7
20260505074725 66 338 13.0 17.0 0.00 0.00 0.00 75 935.7
20260505074151 66 0 11.0 15.0 0.00 0.00 0.00 76 935.6
20260505073641 66 338 10.0 16.0 0.00 0.00 0.00 75 935.6
20260505073131 66 0 11.0 16.0 0.00 0.00 0.00 75 935.5
20260505072621 66 0 12.0 17.0 0.00 0.00 0.00 74 935.6
20260505072110 66 0 14.0 17.0 0.00 0.00 0.00 76 935.6
20260505071600 66 0 11.0 18.0 0.00 0.00 0.00 76 935.8
20260505071050 66 0 13.0 20.0 0.00 0.00 0.00 75 935.7
20260505070540 66 0 12.0 20.0 0.00 0.00 0.00 75 935.8
20260505070030 66 0 15.0 18.0 0.00 0.00 0.00 75 936.0
20260505065520 66 0 14.0 21.0 0.00 0.00 0.00 76 935.8
20260505065010 66 338 15.0 23.0 0.00 0.00 0.00 75 935.7
20260505064500 66 338 15.0 25.0 0.00 0.00 0.00 77 935.5
20260505063950 66 338 17.0 25.0 0.00 0.00 0.00 77 935.8
20260505063440 66 0 17.0 23.0 0.00 0.00 0.00 75 935.7
20260505062930 66 0 17.0 22.0 0.00 0.00 0.00 76 935.8
20260505062641 66 0 16.0 21.0 0.00 0.00 0.00 76 935.8
20260505061909 66 0 15.0 20.0 0.00 0.00 0.00 76 935.8
20260505061621 66 338 10.0 18.0 0.00 0.00 0.00 76 936.0
20260505060850 66 338 11.0 18.0 0.00 0.00 0.00 77 936.2
20260505060340 66 338 15.0 18.0 0.00 0.00 0.00 76 936.1
20260505055829 66 0 15.0 18.0 0.00 0.00 0.00 77 936.1
20260505055518 66 0 15.0 22.0 0.00 0.00 0.00 76 936.0
20260505055509 66 338 15.0 21.0 0.00 0.00 0.00 76 936.1
20260505054258 66 0 15.0 22.0 0.00 0.00 0.00 76 936.1
20260505053748 66 0 11.0 17.0 0.00 0.00 0.00 77 936.0
20260505053238 66 338 12.0 23.0 0.00 0.00 0.00 75 936.3
20260505052729 66 338 14.0 23.0 0.00 0.00 0.00 76 936.3
20260505052219 66 338 11.0 22.0 0.00 0.00 0.00 76 936.2
20260505051707 66 0 12.0 20.0 0.00 0.00 0.00 77 936.4
20260505051158 66 0 11.0 22.0 0.00 0.00 0.00 76 936.5
20260505050648 66 0 15.0 22.0 0.00 0.00 0.00 76 936.4
20260505050138 66 0 17.0 22.0 0.00 0.00 0.00 75 936.4
20260505040956 66 338 15.0 21.0 0.00 0.00 0.00 75 936.6
20260505040447 65 0 11.0 18.0 0.00 0.00 0.00 76 936.6
20260505040157 65 338 14.0 16.0 0.00 0.00 0.00 77 936.6
20260505035426 65 0 11.0 18.0 0.00 0.00 0.00 77 936.5
20260505034916 65 0 11.0 23.0 0.00 0.00 0.00 78 936.5
20260505034406 65 0 14.0 23.0 0.00 0.00 0.00 77 936.6
20260505034124 65 0 15.0 20.0 0.00 0.00 0.00 78 936.4
20260505033345 65 0 15.0 21.0 0.00 0.00 0.00 77 936.3
20260505032836 65 0 15.0 21.0 0.00 0.00 0.00 79 936.5
20260505032552 65 0 15.0 20.0 0.00 0.00 0.00 78 936.3
20260505032253 64 23 11.0 18.0 0.00 0.00 0.00 80 936.4
20260505031305 65 0 12.0 21.0 0.00 0.00 0.00 79 936.5
20260505031017 65 23 15.0 21.0 0.00 0.00 0.00 78 936.3
20260505030245 65 0 16.0 22.0 0.00 0.00 0.00 78 936.1
20260505025958 65 23 16.0 23.0 0.00 0.00 0.00 78 936.1
20260505025708 64 45 16.0 23.0 0.00 0.00 0.00 78 936.1
20260505024715 65 23 17.0 23.0 0.00 0.00 0.00 78 936.3
20260505024205 64 23 14.0 21.0 0.00 0.00 0.00 78 936.4
20260505023654 64 23 12.0 20.0 0.00 0.00 0.00 79 936.3